Tracking 30692 objects as of 16-Jun-2025
HD Live streaming from Space Station
objects crossing your sky now

STARLINK-31187

Track STARLINK-31187 now!
10-day predictions
STARLINK-31187 is classified as:


NORAD ID: 58790
Int'l Code: 2024-012D
Perigee: 494.2 km
Apogee: 496.3 km
Inclination: 43.0 °
Period: 94.4 minutes
Semi major axis: 6866 km
RCS: Unknown
Launch date: January 15, 2024
Source: United States (US)
Launch site: AIR FORCE EASTERN TEST RANGE (AFETR)
Your satellite tracking list
Your tracking list is empty




NASA's NSSDC Master Catalog

Two Line Element Set (TLE):
1 58790U 24012D   25167.44263937  .00000269  00000-0  20114-4 0  9996
2 58790  42.9993 228.3086 0001543 267.9233  92.1441 15.25904238 80526
Source of the keplerian elements: AFSPC